Regional Weather Roundup
Issued by NWS

Home | Current Version | Previous Version | Graphics & Text | Print | Product List | Glossary On
Versions: 1 2 3 4 5 6 7 8 9 10 11 12 13 14 15 16 17 18 19 20 21 22 23 24 25 26 27 28 29 30 31 32 33 34 35 36 37 38 39 40 41 42 43 44 45 46 47 48 49 50
476
ASUS45 KSLC 241410
RWRUT

UTAH REGIONAL WEATHER ROUNDUP
NATIONAL WEATHER SERVICE SALT LAKE CITY UT
800 AM MDT SUN SEP 24 2017

UTZ001>011-023>025-241500-

NORTHERN UTAH

CITY           SKY/WX    TMP DP  RH WIND       PRES   REMARKS
BRIGHAM CITY   CLOUDY    45  36  71 S3        29.92S
HILL AFB       CLOUDY    42  38  86 N5        29.89S
LOGAN          CLOUDY    43  38  82 N9        29.94R
OGDEN          CLOUDY    44  38  79 NW8       29.89S
SALT LAKE CITY CLOUDY    47  43  86 NW12      29.90R
TOOELE VALLEY  DRIZZLE   43  39  87 W12       29.93S
WENDOVER       CLOUDY    47  30  51 NW15      29.98R
HEBER CITY     MIX PCPN  37  34  87 E5        29.88R WCI  34
WEST JORDAN    CLOUDY    44  42  94 NW12      29.91R

$$

UTZ011>015-024>027-241500-

CENTRAL/NORTHEAST UTAH

CITY           SKY/WX    TMP DP  RH WIND       PRES   REMARKS
PROVO AIRPORT  LGT RAIN  40  38  93 S9        29.93R WCI  34
MOAB/CANYONLAN CLEAR     44  40  85 W3        29.87R
DELTA          CLOUDY    37  36  93 NW16G22   29.97S WCI  28
PRICE          MOCLDY    39  36  89 CALM      29.88R
ROOSEVELT      MIX PCPN  39  36  87 N5        29.92R
VERNAL         LGT RAIN  41  38  89 SW10      29.91R

$$

UTZ013>016-019>022-027-241500-

SOUTHERN UTAH

CITY           SKY/WX    TMP DP  RH WIND       PRES   REMARKS
BRYCE CANYON   MOCLDY    34  27  75 NW18G24   29.99R WCI  23
CEDAR CITY     FOG       34  34 100 NE7       30.00R VSB 1/4 WCI  28
MILFORD        FOG       36  36 100 S7        30.02R VSB 1/2 WCI  30
ST GEORGE      CLOUDY    44  35  70 CALM      30.00R
HANKSVILLE     CLOUDY    46  32  57 W3        29.92R
BLANDING         N/A     41  23  48 CALM      30.02R

$$

REGIONAL REPORTS     COLORADO/ARIZONA

CITY           SKY/WX    TMP DP  RH WIND       PRES   REMARKS
CRAIG, CO      CLOUDY    39  37  92 CALM      29.90R FOG
GRAND JUNCTION CLOUDY    44  42  93 W7        29.87R
RIFLE, CO      CLOUDY    41  40  96 CALM      29.89R
MONTROSE, CO   SUNNY     41  37  86 SE8       29.92R
CORTEZ, CO     SUNNY     35  34  96 CALM      29.97R
PAGE, AZ       CLEAR     47  32  56 NE5       29.94R
GRAND CANYON   PTCLDY    26  20  77 CALM      30.01R
KINGMAN, AZ    CLEAR     44  32  62 E8        29.99R
FLAGSTAFF, AZ  CLEAR     34  18  52 VRB3      30.00R

$$

REGIONAL REPORTS    NEVADA/IDAHO/WYOMING

CITY           SKY/WX    TMP DP  RH WIND       PRES   REMARKS
LAS VEGAS, NV  CLEAR     55  32  41 CALM      29.98R
ELY, NY        MOCLDY    31  28  89 W6        30.03R WCI  25
ELKO, NV       CLEAR     29  24  82 W3        30.06R
POCATELLO, ID  CLOUDY    37  35  92 CALM      30.01R
BURLEY, ID     PTCLDY    38  32  79 W8        30.01R WCI  32
FORT BRIDGER,  SNOW      34  34 100 NE6       29.94S VSB<1/4 WCI  28
EVANSTON, WY   LGT SNOW  35  33  92 NE8       29.91R FOG     WCI  29
ROCK SPRINGS,  CLOUDY    34  31  88 NE25G37   29.90R WCI  21

$$




USA.gov is the U.S. government's official web portal to all federal, state and local government web resources and services.